Weather History for KENV - October, 2012

Change the Weather History Date:

Sunday, October 7, 2012

  Actual Average Record
Temperature  
Mean Temperature 48 °F -  
Max Temperature 60 °F 66 °F 81 °F (1943)
Min Temperature 35 °F 43 °F 34 °F (1974)
Degree Days  
Heating Degree Days 18    
Moisture  
Dew Point 13 °F    
Average Humidity 27    
Maximum Humidity 48    
Minimum Humidity 15    
Precipitation  
Precipitation 0.00 in - - ()
Sea Level Pressure  
Sea Level Pressure 30.17 in    
Wind  
Wind Speed 3 mph (SE)    
Max Wind Speed 8 mph    
Max Gust Speed -    
Visibility 10 miles    
Events      
Averages and records for this station are not official NWS values.
T = Trace of Precipitation, MM = Missing Value Source: NWS Daily Summary

Daily Weather History Graph

Daily Weather History Graph

Search for Another Location

Airport or City:

Trip Planner

Search our weather history database for the weather conditions in past years. The results will help you decide how hot, cold, wet, or windy it might be!

Date:

Astronomy

Oct. 07, 2012 Rise Set
Actual Time 7:39 AM MDT 7:07 PM MDT
Civil Twilight 7:12 AM MDT 7:34 PM MDT
Nautical Twilight 6:40 AM MDT 8:06 PM MDT
Astronomical Twilight 6:08 AM MDT 8:38 PM MDT
Moon No Moon Rise 2:20 PM MDT (10/7)
Length of Visible Light 12h 22m
Length of Day
11h 28m
Waning Gibbous, 55% of the Moon is Illuminated
Oct 7
Waning Gibbous
Oct 8
Last Quarter
Oct 15
New
Oct 21
First Quarter
Oct 29
Full

Hourly Weather History & Observations

Time (MDT) Temp. Windchill Dew Point Humidity Pressure Visibility Wind Dir Wind Speed Gust Speed Precip Events Conditions
12:15 AM 42.8 °F - 12.2 °F 29% 30.17 in 10.0 mi Calm Calm - N/A   Clear
12:35 AM 42.8 °F - 10.4 °F 27% 30.18 in 10.0 mi Calm Calm - N/A   Clear
1:35 AM 41.0 °F 39.0 °F 12.2 °F 31% 30.18 in 10.0 mi WSW 3.5 mph - N/A   Clear
1:55 AM 42.8 °F - 12.2 °F 29% 30.18 in 10.0 mi Calm Calm - N/A   Clear
2:15 AM 39.2 °F - 15.8 °F 39% 30.18 in 10.0 mi Calm Calm - N/A   Clear
2:35 AM 39.2 °F 37.0 °F 15.8 °F 39% 30.19 in 10.0 mi East 3.5 mph - N/A   Clear
3:55 AM 37.4 °F 34.9 °F 15.8 °F 41% 30.19 in 10.0 mi WNW 3.5 mph - N/A   Clear
4:15 AM 39.2 °F 37.0 °F 14.0 °F 36% 30.19 in 10.0 mi North 3.5 mph - N/A   Clear
4:35 AM 39.2 °F - 14.0 °F 36% 30.19 in 10.0 mi Calm Calm - N/A   Clear
5:15 AM 39.2 °F 35.9 °F 8.6 °F 28% 30.19 in 10.0 mi WNW 4.6 mph - N/A   Clear
5:55 AM 37.4 °F - 14.0 °F 38% 30.19 in 10.0 mi Calm Calm - N/A   Clear
6:15 AM 37.4 °F - 15.8 °F 41% 30.19 in 10.0 mi Calm Calm - N/A   Clear
6:35 AM 37.4 °F 34.9 °F 15.8 °F 41% 30.19 in 10.0 mi SSW 3.5 mph - N/A   Clear
6:55 AM 37.4 °F - 12.2 °F 36% 30.19 in 10.0 mi Calm Calm - N/A   Clear
7:15 AM 37.4 °F - 14.0 °F 38% 30.19 in 10.0 mi Calm Calm - N/A   Clear
7:55 AM 35.6 °F 31.7 °F 17.6 °F 48% 30.20 in 10.0 mi East 4.6 mph - N/A   Clear
8:36 AM 37.4 °F - 12.2 °F 36% 30.21 in 10.0 mi Calm Calm - N/A   Clear
8:55 AM 39.2 °F - 17.6 °F 42% 30.22 in 10.0 mi Calm Calm - N/A   Clear
9:15 AM 42.8 °F - 17.6 °F 36% 30.22 in 10.0 mi Calm Calm - N/A   Clear
9:55 AM 46.4 °F 44.3 °F 15.8 °F 29% 30.23 in 10.0 mi SE 4.6 mph - N/A   Clear
11:15 AM 51.8 °F - 10.4 °F 19% 30.23 in 10.0 mi ESE 4.6 mph - N/A   Clear
11:35 AM 51.8 °F - 12.2 °F 21% 30.23 in 10.0 mi ENE 4.6 mph - N/A   Clear
11:55 AM 53.6 °F - 12.2 °F 19% 30.23 in 10.0 mi ESE 6.9 mph - N/A   Clear
12:55 PM 55.4 °F - 10.4 °F 17% 30.22 in 10.0 mi ESE 5.8 mph - N/A   Clear
1:35 PM 57.2 °F - 10.4 °F 16% 30.20 in 10.0 mi ESE 6.9 mph - N/A   Clear
2:15 PM 57.2 °F - 10.4 °F 16% 30.19 in 10.0 mi ESE 6.9 mph - N/A   Clear
2:35 PM 57.2 °F - 12.2 °F 17% 30.18 in 10.0 mi SE 6.9 mph - N/A   Clear
2:55 PM 57.2 °F - 12.2 °F 17% 30.17 in 10.0 mi SE 4.6 mph - N/A   Clear
3:15 PM 57.2 °F - 12.2 °F 17% 30.16 in 10.0 mi East 5.8 mph - N/A   Clear
3:35 PM 59.0 °F - 12.2 °F 16% 30.16 in 10.0 mi ESE 6.9 mph - N/A   Clear
3:55 PM 59.0 °F - 12.2 °F 16% 30.15 in 10.0 mi SSE 5.8 mph - N/A   Clear
4:15 PM 60.8 °F - 12.2 °F 15% 30.14 in 10.0 mi SE 5.8 mph - N/A   Clear
4:35 PM 60.8 °F - 12.2 °F 15% 30.14 in 10.0 mi ESE 5.8 mph - N/A   Clear
7:15 PM 55.4 °F - 10.4 °F 17% 30.10 in 10.0 mi SE 3.5 mph - N/A   Clear
7:35 PM 55.4 °F - 10.4 °F 17% 30.10 in 10.0 mi Calm Calm - N/A   Clear
7:55 PM 55.4 °F - 12.2 °F 18% 30.10 in 10.0 mi Calm Calm - N/A   Clear
8:15 PM 51.8 °F - 12.2 °F 21% 30.11 in 10.0 mi Calm Calm - N/A   Clear
8:35 PM 51.8 °F - 12.2 °F 21% 30.11 in 10.0 mi NNE 3.5 mph - N/A   Clear
8:55 PM 50.0 °F - 12.2 °F 22% 30.11 in 10.0 mi West 4.6 mph - N/A   Clear
9:35 PM 46.4 °F 42.4 °F 10.4 °F 23% 30.11 in 10.0 mi WNW 8.1 mph - N/A   Clear
9:55 PM 48.2 °F - 12.2 °F 24% 30.11 in 10.0 mi NW 6.9 mph - N/A   Clear
10:15 PM 48.2 °F - 10.4 °F 22% 30.10 in 10.0 mi WNW 6.9 mph - N/A   Clear
10:35 PM 46.4 °F 42.9 °F 10.4 °F 23% 30.10 in 10.0 mi WNW 6.9 mph - N/A   Clear
10:55 PM 46.4 °F 44.3 °F 10.4 °F 23% 30.10 in 10.0 mi West 4.6 mph - N/A   Clear
11:15 PM 44.6 °F 42.2 °F 12.2 °F 27% 30.10 in 10.0 mi SW 4.6 mph - N/A   Clear
11:35 PM 42.8 °F - 12.2 °F 29% 30.10 in 10.0 mi Calm Calm - N/A   Clear